World > North America > United States > Oregon   City of Portland, OR
Hourly Weather in Portland, OregonPortland, Oregon Hourly Weather

Portland, OR Hourly Weather

Hourly Weather Portland, OregonHourly Weather in Portland, OR
Lat: 45.52N, Lon: 122.67W  ICAO: KPDX
Web Search

Our weather pages are very print friendly and they make great conversation starters.

Feedback

Portland Hourly Weather

36 Hour Weather Scroll   °F Click to change Portland hourly weather to Imperial units.Click to change Portland hourly weather to Metric units. °C
Currently, Overcast, temperature is 58°F14°C, dew point 49°F9°C, humidity 72%. Wind direction is S at 8 mph13 km/h with visibility of 10.00 mi16 km. Barometric pressure is 30.3 in1026 mb.

Oct 27
NOON

Oct 27
1:00 PM

Oct 27
2:00 PM

Oct 27
3:00 PM

Oct 27
4:00 PM

Oct 27
5:00 PM

Oct 27
6:00 PM

Oct 27
7:00 PM

Oct 27
8:00 PM

Oct 27
9:00 PM

Oct 27
10:00 PM

Oct 27
11:00 PM

Oct 28
MIDNIGHT

Oct 28
1:00 AM

Oct 28
2:00 AM

Oct 28
3:00 AM

Oct 28
4:00 AM

Oct 28
5:00 AM

Oct 28
6:00 AM

Oct 28
7:00 AM

Oct 28
8:00 AM

Oct 28
9:00 AM

Oct 28
10:00 AM

Oct 28
11:00 AM

Oct 28
NOON

Oct 28
1:00 PM

Oct 28
2:00 PM

Oct 28
3:00 PM

Oct 28
4:00 PM

Oct 28
5:00 PM

Oct 28
6:00 PM

Oct 28
7:00 PM

Oct 28
8:00 PM

Oct 28
9:00 PM

Oct 28
10:00 PM

Oct 28
11:00 PM
Mostly Cloudy Cloudy Cloudy Cloudy Cloudy Cloudy Cloudy Cloudy Cloudy Cloudy Cloudy Cloudy Cloudy Cloudy Cloudy Cloudy Cloudy Cloudy Cloudy Cloudy Cloudy Cloudy Cloudy Cloudy Cloudy Cloudy Cloudy Cloudy Cloudy Cloudy Cloudy Cloudy Cloudy Cloudy Cloudy Cloudy
Mostly Cloudy Cloudy Cloudy Cloudy Cloudy Cloudy Cloudy Cloudy Cloudy Cloudy Cloudy Cloudy Cloudy Cloudy Cloudy Cloudy Cloudy Cloudy Cloudy Cloudy Cloudy Cloudy Cloudy Cloudy Cloudy Cloudy Cloudy Cloudy Cloudy Cloudy Cloudy Cloudy Cloudy Cloudy Cloudy Cloudy
55°F13°C 56°F13°C 56°F13°C 56°F13°C 56°F13°C 56°F13°C 55°F13°C 55°F13°C 54°F12°C 54°F12°C 55°F13°C 55°F13°C 55°F13°C 55°F13°C 55°F13°C 56°F13°C 56°F13°C 57°F14°C 57°F14°C 58°F14°C 58°F14°C 59°F15°C 60°F16°C 61°F16°C 62°F17°C 62°F17°C 63°F17°C 63°F17°C 63°F17°C 63°F17°C 62°F17°C 61°F16°C 60°F16°C 59°F15°C 58°F14°C 57°F14°C
Rain Rain Rain Rain Rain Rain Rain Rain Rain Rain Rain Rain Rain Rain Rain Rain Rain Rain Rain Rain Rain Rain Rain Rain Rain Rain Rain Rain Rain Rain Rain Rain Rain Rain Rain Rain
53% 53% 53% 53% 53% 53% 88% 88% 88% 88% 88% 88% 80% 80% 80% 80% 80% 80% 49% 49% 49% 49% 49% 49% 43% 43% 43% 43% 43% 43% 75% 75% 75% 75% 75% 75%
49°F9°C 48°F9°C 48°F9°C 48°F9°C 48°F9°C 48°F9°C 49°F9°C 50°F10°C 51°F11°C 51°F11°C 52°F11°C 52°F11°C 52°F11°C 53°F12°C 53°F12°C 54°F12°C 54°F12°C 55°F13°C 55°F13°C 55°F13°C 55°F13°C 55°F13°C 55°F13°C 55°F13°C 56°F13°C 56°F13°C 57°F14°C 57°F14°C 57°F14°C 57°F14°C 57°F14°C 57°F14°C 57°F14°C 56°F13°C 56°F13°C 55°F13°C
80% 74% 74% 74% 74% 74% 80% 83% 90% 90% 90% 90% 90% 93% 93% 93% 93% 93% 93% 90% 90% 87% 84% 81% 81% 81% 81% 81% 81% 81% 84% 87% 90% 90% 93% 93%
SSE SSE SW S SSE SE ESE E E E SE SE SE SSE SSE SSE SSE SSE SSE SSE SSE SSE SSE SSE SSE SSE S S S S S S S S S S
6 mph 6 mph 6 mph 6 mph 5 mph 5 mph 5 mph 3 mph 3 mph 3 mph 11 mph 11 mph 11 mph 10 mph 10 mph 10 mph 12 mph 12 mph 12 mph 11 mph 11 mph 11 mph 14 mph 14 mph 14 mph 13 mph 13 mph 13 mph 13 mph 13 mph 13 mph 14 mph 14 mph 14 mph 8 mph 8 mph
10 mi16 km 10 mi16 km 10 mi16 km 10 mi16 km 10 mi16 km 10 mi16 km 10 mi16 km 10 mi16 km 10 mi16 km 10 mi16 km 10 mi16 km 10 mi16 km 10 mi16 km 10 mi16 km 10 mi16 km 10 mi16 km 10 mi16 km 10 mi16 km 10 mi16 km 10 mi16 km 10 mi16 km 10 mi16 km 10 mi16 km 10 mi16 km 10 mi16 km 10 mi16 km 10 mi16 km 10 mi16 km 10 mi16 km 10 mi16 km 10 mi16 km 10 mi16 km 10 mi16 km 10 mi16 km 10 mi16 km 10 mi16 km
Hour (PDT)
Weather
Clouds
Temperature
Precip. Type
POP
Dewpoint
Humidity
Wind Direction
Wind Speed
Visibility
POP = Probability of Precipitation. ** Indicates missing data/values from model statistics.

24 Hour Forecast

Today - Mostly cloudy. A chance of showers until midday. Rain in the afternoon. Highs around 55. Southwest wind 5 to 10 mph. Chance of precipitation 80%. Rainfall amounts around a tenth of an inch.
Tonight - Rain. Lows 50 to 55. Southeast wind 5 to 10 mph. Gusts to 20 mph after midnight. Chance of rain near 100%. Rainfall amounts around a quarter of an inch.

48 Hour Forecast API Feed


Wed, Oct 27
Noon

Wed, Oct 27
1:00 pm

Wed, Oct 27
2:00 pm

Wed, Oct 27
3:00 pm

Wed, Oct 27
4:00 pm

Wed, Oct 27
5:00 pm

Wed, Oct 27
6:00 pm

Wed, Oct 27
7:00 pm

Wed, Oct 27
8:00 pm

Wed, Oct 27
9:00 pm

Wed, Oct 27
10:00 pm

Wed, Oct 27
11:00 pm

Thu, Oct 28
Midnight

Thu, Oct 28
1:00 am

Thu, Oct 28
2:00 am

Thu, Oct 28
3:00 am

Thu, Oct 28
4:00 am

Thu, Oct 28
5:00 am

Thu, Oct 28
6:00 am

Thu, Oct 28
7:00 am

Thu, Oct 28
8:00 am

Thu, Oct 28
9:00 am

Thu, Oct 28
10:00 am

Thu, Oct 28
11:00 am

Thu, Oct 28
Noon

Thu, Oct 28
1:00 pm

Thu, Oct 28
2:00 pm

Thu, Oct 28
3:00 pm

Thu, Oct 28
4:00 pm

Thu, Oct 28
5:00 pm

Thu, Oct 28
6:00 pm

Thu, Oct 28
7:00 pm

Thu, Oct 28
8:00 pm

Thu, Oct 28
9:00 pm

Thu, Oct 28
10:00 pm

Thu, Oct 28
11:00 pm

Fri, Oct 29
Midnight

Fri, Oct 29
1:00 am

Fri, Oct 29
2:00 am

Fri, Oct 29
3:00 am

Fri, Oct 29
4:00 am

Fri, Oct 29
5:00 am

Fri, Oct 29
6:00 am

Fri, Oct 29
7:00 am

Fri, Oct 29
8:00 am

Fri, Oct 29
9:00 am

Fri, Oct 29
10:00 am

Fri, Oct 29
11:00 am
CloudyCloudyPatchy Rain PossiblePatchy Rain PossiblePatchy Rain PossibleLight Rain ShowerLight DrizzleLight DrizzlePatchy Light RainLight DrizzleLight DrizzleModerate RainLight DrizzleLight DrizzleLight RainLight Rain ShowerLight Rain ShowerLight RainOvercastOvercastOvercastOvercastOvercastPatchy Rain PossiblePatchy Rain PossiblePatchy Rain PossibleLight Rain ShowerPatchy Rain PossiblePatchy Rain PossibleLight Rain ShowerPatchy Rain PossiblePatchy Rain PossibleLight Rain ShowerPatchy Rain PossiblePatchy Rain PossibleLight Rain ShowerLight DrizzleLight DrizzleModerate RainLight RainLight RainHeavy RainLight RainLight RainModerate RainLight RainLight RainHeavy Rain At Times
Cloudy Cloudy Patchy rain possible Patchy rain possible Patchy rain possible Light rain showers Light drizzle Light drizzle Patchy light rain Light drizzle Light drizzle Moderate rain Light drizzle Light drizzle Light rain Light rain showers Light rain showers Light rain Overcast Overcast Overcast Overcast Overcast Patchy rain possible Patchy rain possible Patchy rain possible Light rain showers Patchy rain possible Patchy rain possible Light rain showers Patchy rain possible Patchy rain possible Light rain showers Patchy rain possible Patchy rain possible Light rain showers Light drizzle Light drizzle Moderate rain Light rain Light rain Heavy rain Light rain Light rain Moderate rain Light rain Light rain Heavy rain at times
55°F
13°C
56°F
14°C
55°F
13°C
54°F
12°C
54°F
12°C
54°F
12°C
53°F
12°C
52°F
11°C
51°F
11°C
51°F
11°C
51°F
11°C
51°F
11°C
51°F
11°C
52°F
11°C
53°F
12°C
53°F
12°C
54°F
12°C
55°F
13°C
55°F
13°C
56°F
13°C
57°F
14°C
57°F
14°C
58°F
14°C
59°F
15°C
62°F
16°C
63°F
17°C
63°F
17°C
64°F
18°C
64°F
18°C
64°F
18°C
63°F
17°C
63°F
17°C
62°F
17°C
61°F
16°C
61°F
16°C
61°F
16°C
60°F
16°C
60°F
15°C
59°F
15°C
59°F
15°C
55°F
13°C
53°F
12°C
51°F
11°C
50°F
10°C
49°F
10°C
49°F
10°C
50°F
10°C
51°F
11°C
47°F
8°C
47°F
8°C
47°F
8°C
47°F
8°C
47°F
9°C
48°F
9°C
48°F
9°C
49°F
10°C
49°F
10°C
50°F
10°C
50°F
10°C
50°F
10°C
50°F
10°C
50°F
10°C
51°F
11°C
51°F
11°C
52°F
11°C
53°F
11°C
53°F
12°C
54°F
12°C
55°F
13°C
55°F
13°C
55°F
13°C
56°F
13°C
57°F
14°C
58°F
14°C
58°F
15°C
58°F
15°C
59°F
15°C
59°F
15°C
58°F
15°C
58°F
15°C
57°F
14°C
57°F
14°C
58°F
14°C
58°F
14°C
57°F
14°C
57°F
14°C
57°F
14°C
57°F
14°C
52°F
11°C
48°F
9°C
47°F
9°C
47°F
8°C
46°F
8°C
46°F
8°C
45°F
7°C
44°F
7°C
30.3 in
1026 mb
30.27 in
1025 mb
30.27 in
1025 mb
30.27 in
1025 mb
30.27 in
1025 mb
30.27 in
1025 mb
30.27 in
1025 mb
30.27 in
1025 mb
30.24 in
1024 mb
30.24 in
1024 mb
30.21 in
1023 mb
30.18 in
1022 mb
30.18 in
1022 mb
30.18 in
1022 mb
30.18 in
1022 mb
30.15 in
1021 mb
30.15 in
1021 mb
30.15 in
1021 mb
30.12 in
1020 mb
30.12 in
1020 mb
30.12 in
1020 mb
30.12 in
1020 mb
30.09 in
1019 mb
30.09 in
1019 mb
30.09 in
1019 mb
30.06 in
1018 mb
30.03 in
1017 mb
30.03 in
1017 mb
30 in
1016 mb
29.97 in
1015 mb
29.94 in
1014 mb
29.94 in
1014 mb
29.94 in
1014 mb
29.94 in
1014 mb
29.94 in
1014 mb
29.91 in
1013 mb
29.88 in
1012 mb
29.85 in
1011 mb
29.85 in
1011 mb
29.85 in
1011 mb
29.85 in
1011 mb
29.88 in
1012 mb
29.91 in
1013 mb
29.94 in
1014 mb
29.97 in
1015 mb
30.03 in
1017 mb
30.06 in
1018 mb
30.09 in
1019 mb
75%70%73%76%78%80%84%90%94%95%95%94%94%93%93%93%92%93%93%93%92%91%90%89%85%84%83%82%83%84%85%85%85%87%88%88%89%91%93%95%89%84%87%89%90%88%82%78%
SSWSSWSSWSSWSSWSSESSEENEESEESEESEESESESSESSESSESSSSSSSWSSSSSWSSWSSWSSSWSSWSSWSSWSSWSSWSSSWSSWSSWWSWNWNWNWWNWWNWWNWWNWWNW
6 mph
10 km/h
7 mph
12 km/h
6 mph
9 km/h
6 mph
9 km/h
4 mph
7 km/h
2 mph
4 km/h
3 mph
5 km/h
2 mph
4 km/h
4 mph
7 km/h
3 mph
5 km/h
4 mph
7 km/h
3 mph
5 km/h
4 mph
6 km/h
4 mph
6 km/h
4 mph
7 km/h
4 mph
7 km/h
6 mph
10 km/h
6 mph
10 km/h
6 mph
10 km/h
7 mph
11 km/h
7 mph
12 km/h
7 mph
11 km/h
6 mph
10 km/h
6 mph
10 km/h
7 mph
12 km/h
7 mph
12 km/h
7 mph
12 km/h
8 mph
12 km/h
7 mph
12 km/h
8 mph
12 km/h
8 mph
13 km/h
9 mph
14 km/h
9 mph
14 km/h
9 mph
14 km/h
9 mph
14 km/h
10 mph
16 km/h
11 mph
18 km/h
11 mph
17 km/h
10 mph
17 km/h
8 mph
13 km/h
10 mph
16 km/h
11 mph
17 km/h
8 mph
13 km/h
5 mph
9 km/h
6 mph
10 km/h
5 mph
8 km/h
6 mph
10 km/h
8 mph
13 km/h
0%0%80%83%79%54%94%93%93%92%73%92%58%91%91%90%61%78%0%0%0%0%0%88%56%55%82%80%86%86%61%85%71%52%57%68%83%83%82%82%82%81%81%81%80%80%80%79%
6 mi
10 km
6 mi
10 km
6 mi
10 km
6 mi
10 km
6 mi
10 km
6 mi
10 km
1 mi
2 km
1 mi
2 km
6 mi
9 km
1 mi
2 km
1 mi
2 km
4 mi
7 km
1 mi
2 km
1 mi
2 km
6 mi
9 km
6 mi
10 km
6 mi
10 km
6 mi
9 km
6 mi
10 km
6 mi
10 km
6 mi
10 km
6 mi
10 km
6 mi
10 km
6 mi
10 km
6 mi
10 km
6 mi
10 km
6 mi
10 km
6 mi
10 km
6 mi
10 km
6 mi
10 km
6 mi
10 km
6 mi
10 km
6 mi
10 km
6 mi
10 km
6 mi
10 km
6 mi
10 km
1 mi
2 km
1 mi
2 km
4 mi
7 km
6 mi
9 km
6 mi
9 km
3 mi
5 km
6 mi
9 km
6 mi
9 km
4 mi
7 km
6 mi
9 km
6 mi
9 km
4 mi
6 km

Day/Time
Weather
Condition
Temperature
Dew Point
Pressure
Humidity
Wind Direction
Wind Speed
Prob Precip %
Visibility
Prob Precip % = Probability of Precipitation.